Eau Claire, WI

1:24 PM CST on February 22, 2018 (GMT -0600)
Chippewa Valley Regional

Weather History for KEAU - May, 2015

Change the Weather History Date:

Thursday, May 28, 2015

  Actual Average Record
Temperature  
Mean Temperature 69 °F 61 °F  
Max Temperature 85 °F 73 °F 95 °F (2006)
Min Temperature 52 °F 49 °F 33 °F (1906)
Degree Days  
Heating Degree Days 0 5  
Month to date heating degree days 213 242  
Since 1 July heating degree days 8077 7882  
Cooling Degree Days 4 1  
Month to date cooling degree days 18 22  
Year to date cooling degree days 18 26  
Growing Degree Days 18 (Base 50)    
Moisture  
Dew Point 54 °F    
Average Humidity 65    
Maximum Humidity 96    
Minimum Humidity 34    
Precipitation  
Precipitation 0.01 in 0.12 in 2.40 in (1941)
Month to date precipitation 4.99 3.10  
Year to date precipitation 9.05 9.28  
Snow  
Snow 0.00 in 0.00 in T in (1965)
Month to date snowfall 0.0 0.2  
Since 1 July snowfall 38.1 47.0  
Snow Depth 0.00 in    
Sea Level Pressure  
Sea Level Pressure 30.03 in    
Wind  
Wind Speed 9 mph (South)    
Max Wind Speed 22 mph    
Max Gust Speed 28 mph    
Visibility 10 miles    
Events      
T = Trace of Precipitation, MM = Missing Value Source: NWS Daily Summary

Daily Weather History Graph

Daily Weather History Graph

Search for Another Location

Airport or City:

Trip Planner

Search our weather history database for the weather conditions in past years. The results will help you decide how hot, cold, wet, or windy it might be!

Date:

Astronomy

May. 28, 2015 Rise Set
Actual Time 5:25 AM CDT 8:41 PM CDT
Civil Twilight 4:49 AM CDT 9:17 PM CDT
Nautical Twilight 4:03 AM CDT 10:03 PM CDT
Astronomical Twilight 3:06 AM CDT 11:01 PM CDT
Moon 3:41 PM CDT (5/28) 2:51 AM CDT (5/28)
Length of Visible Light 16h 27m
Length of Day
15h 15m
Waxing Gibbous, 77% of the Moon is Illuminated
May 28
Waxing Gibbous
Jun 2
Full
Jun 9
Last Quarter
Jun 16
New
Jun 24
First Quarter

Hourly Weather History & Observations

Time (CDT) Temp. Heat Index Dew Point Humidity Pressure Visibility Wind Dir Wind Speed Gust Speed Precip Events Conditions
12:56 AM 62.1 °F - 54.0 °F 75% 30.04 in 10.0 mi SSW 4.6 mph - N/A   Clear
1:56 AM 61.0 °F - 54.0 °F 78% 30.05 in 10.0 mi SSW 3.5 mph - N/A   Clear
2:56 AM 57.0 °F - 54.0 °F 89% 30.05 in 10.0 mi Calm Calm - N/A   Clear
3:56 AM 55.9 °F - 53.1 °F 90% 30.06 in 10.0 mi Calm Calm - N/A   Clear
4:56 AM 54.0 °F - 52.0 °F 93% 30.07 in 9.0 mi Calm Calm - N/A   Clear
5:56 AM 52.0 °F - 50.0 °F 93% 30.08 in 4.0 mi Calm Calm - N/A   Clear
6:56 AM 59.0 °F - 55.0 °F 87% 30.08 in 10.0 mi Calm Calm - N/A   Clear
7:56 AM 64.0 °F - 59.0 °F 84% 30.09 in 10.0 mi Calm Calm - N/A   Clear
8:56 AM 71.1 °F - 59.0 °F 66% 30.09 in 10.0 mi SSW 5.8 mph - N/A   Clear
9:56 AM 75.9 °F - 57.0 °F 52% 30.08 in 10.0 mi SSW 8.1 mph - N/A   Clear
10:56 AM 80.1 °F 80.4 °F 57.0 °F 45% 30.06 in 10.0 mi SSW 9.2 mph - N/A   Clear
11:56 AM 81.0 °F 80.8 °F 55.9 °F 42% 30.06 in 10.0 mi SSW 15.0 mph - N/A   Clear
12:56 PM 82.9 °F - 52.0 °F 34% 30.06 in 10.0 mi SSW 19.6 mph - N/A   Clear
1:56 PM 82.9 °F - 51.1 °F 33% 30.04 in 10.0 mi SSW 15.0 mph 20.7 mph N/A   Clear
2:56 PM 84.0 °F 82.6 °F 54.0 °F 35% 30.03 in 10.0 mi SW 13.8 mph - N/A   Scattered Clouds
3:56 PM 82.9 °F 82.0 °F 55.0 °F 38% 30.02 in 10.0 mi South 19.6 mph 25.3 mph N/A   Mostly Cloudy
4:56 PM 82.0 °F 81.4 °F 55.0 °F 39% 30.01 in 10.0 mi SSW 15.0 mph 21.9 mph N/A   Partly Cloudy
5:56 PM 80.1 °F - 52.0 °F 38% 29.99 in 10.0 mi South 15.0 mph 21.9 mph N/A   Clear
6:56 PM 79.0 °F - 55.9 °F 45% 29.96 in 10.0 mi South 15.0 mph - N/A   Clear
7:56 PM 77.0 °F - 54.0 °F 45% 29.94 in 10.0 mi South 13.8 mph - N/A   Clear
8:56 PM 73.9 °F - 53.1 °F 48% 29.94 in 10.0 mi South 11.5 mph - N/A   Clear
9:56 PM 72.0 °F - 53.1 °F 51% 29.95 in 10.0 mi SSE 8.1 mph - N/A   Clear
10:56 PM 70.0 °F - 54.0 °F 57% 29.96 in 10.0 mi SSE 6.9 mph - N/A   Clear
11:56 PM 70.0 °F - 54.0 °F 57% 29.96 in 10.0 mi SSE 6.9 mph - N/A   Overcast